Regional Weather Roundup
Issued by NWS

Home | Current Version | Previous Version | Text Only | Print | Product List | Glossary On
Versions: 1 2 3 4 5 6 7 8 9 10 11 12 13 14 15 16 17 18 19 20 21 22 23 24 25 26 27 28 29 30 31 32 33 34 35 36 37 38 39 40 41 42 43 44 45 46 47 48 49 50
000
ASUS43 KMKX 300000
RWRWI

WISCONSIN REGIONAL WEATHER ROUNDUP
NATIONAL WEATHER SERVICE MILWAUKEE/SULLIVAN WI
700 PM CDT WED JUL 29 2015

NOTE: "FAIR" INDICATES FEW OR NO CLOUDS BELOW 12,000 FEET WITH NO
SIGNIFICANT WEATHER AND/OR OBSTRUCTIONS TO VISIBILITY.

WIZ001-002-006>008-014>016-023>028-300100-
NORTHWEST WISCONSIN

CITY           SKY/WX    TMP DP  RH WIND       PRES   REMARKS
SUPERIOR ARPT  MOSUNNY   76  56  48 W15G24    29.80R
ASHLAND        PTSUNNY   76  57  51 W8G17     29.80S
6HR MIN TEMP:  70; 6HR MAX TEMP:  77;

HAYWARD        MOSUNNY   78  53  41 W12G23    29.86S
6HR MIN TEMP:  72; 6HR MAX TEMP:  79;

SIREN          MOSUNNY   78  52  40 W16G23    29.88S
CUMBERLAND     MOSUNNY   75  50  41 W13G29    29.90S
RICE LAKE      MOSUNNY   77  53  43 W18G25    29.91S
CHETEK         MOSUNNY   78  55  44 MISG      29.90S
LADYSMITH      MOSUNNY   78  53  43 W18G25    29.90S
EAU CLAIRE     NOT AVBL
MENOMONIE      SUNNY     80  52  37 W16G30    29.92S HX  80
NEW RICHMOND   SUNNY     79  52  39 W22G28    29.93R
OSCEOLA        SUNNY     78  52  40 W14G26    29.94S
$$

WIZ003>005-009-010-017-018-300100-
NORTH CENTRAL WISCONSIN

CITY           SKY/WX    TMP DP  RH WIND       PRES   REMARKS
MANITOWISH WTR CLOUDY    73  54  51 W8        29.85R
ARBOR VITAE    CLOUDY    75  54  47 W14G24    29.87R
WOODRUFF       CLOUDY    75  54  47 W14G24    29.87R
RHINELANDER    MOSUNNY   75  51  43 W21G33    29.88S
6HR MIN TEMP:  75; 6HR MAX TEMP:  81;

EAGLE RIVER    CLOUDY    74  50  42 W15G23    29.85S
LAND O LAKES   CLOUDY    73  53  48 W6G17     29.85S
PHILLIPS       PTSUNNY   75  54  48 W13G20    29.87S
TOMAHAWK       MOSUNNY   74  52  45 W10G17    29.89S
MEDFORD        MOSUNNY   75  54  46 W14G26    29.91S
MERRILL        NOT AVBL
$$

WIZ029-030-035-036-043>047-300100-
CENTRAL WISCONSIN

CITY           SKY/WX    TMP DP  RH WIND       PRES   REMARKS
WAUSAU         MOSUNNY   78  52  40 W17G28    29.89R
6HR MIN TEMP:  78; 6HR MAX TEMP:  83;

MOSINEE        MOSUNNY   77  52  41 W20G29    29.92R
MARSHFIELD     SUNNY     77  52  41 W10       29.92R
6HR MIN TEMP:  77; 6HR MAX TEMP:  82;

STEVENS POINT  MOSUNNY   78  53  41 W16G23    29.91S
WAUPACA        MOSUNNY   83  49  30 W14G25    29.90R HX  81
WAUTOMA        NOT AVBL
WISC RAPIDS    SUNNY     80  50  34 W14G24    29.94R HX  80
6HR MIN TEMP:  80; 6HR MAX TEMP:  85;

CAMP DOUGLAS   NOT AVBL
$$

WIZ011>013-019>022-031-037>040-048>050-300100-
NORTHEAST WISCONSIN

CITY           SKY/WX    TMP DP  RH WIND       PRES   REMARKS
ANTIGO         PTSUNNY   75  53  45 W17G28    29.90R
SHAWANO        CLOUDY    81  52  36 W10G16    29.88R HX  80
OCONTO         CLOUDY    80  55  42 W14       29.84R HX  80
STURGEON BAY   PTSUNNY   79  55  44 W15G21    29.87R
6HR MIN TEMP:  79; 6HR MAX TEMP:  84;

GREEN BAY      PTSUNNY   80  54  40 W15G23    29.88R HX  80
6HR MIN TEMP:  80; 6HR MAX TEMP:  85;

MANITOWOC      NOT AVBL
APPLETON       NOT AVBL
CLINTONVILLE   MOSUNNY   81  46  30 NW20G29   29.88R HX  80
OSHKOSH        SUNNY     81  52  36 W10G20    29.90R HX  80
6HR MIN TEMP:  81; 6HR MAX TEMP:  84;

$$

WIZ032>034-041-042-053>061-300100-
SOUTHWEST WISCONSIN

CITY           SKY/WX    TMP DP  RH WIND       PRES   REMARKS
LA CROSSE      SUNNY     82  54  37 W14       29.95S HX  81
6HR MIN TEMP:  82; 6HR MAX TEMP:  85;

SPARTA         SUNNY     81  49  32 W15G23    29.95S HX  80
VIROQUA        SUNNY     78  52  39 W13G21    30.00S
BOSCOBEL       SUNNY     82  53  36 W13G23    29.98S HX  81
6HR MIN TEMP:  82; 6HR MAX TEMP:  87;

PRAIRIE DU CHI SUNNY     82  47  29 W14G22    29.99S HX  80
PLATTEVILLE    SUNNY     80  52  37 W13G22    30.00F HX  80
$$

WIZ056-057-062-063-064-067-068-300100-
SOUTH CENTRAL WISCONSIN

CITY           SKY/WX    TMP DP  RH WIND       PRES   REMARKS
REEDSBURG      SUNNY     82  54  38 W10G22    29.95R HX  81
BARABOO/DELLS  SUNNY     82  46  29 W15G22    29.95S HX  80
LONE ROCK      NOT AVBL
MINERAL POINT  SUNNY     81  50  34 W12G17    30.00S HX  80
MADISON        MOSUNNY   81  52  36 W13G22    29.95R HX  80
6HR MIN TEMP:  81; 6HR MAX TEMP:  84;

MIDDLETON      SUNNY     82  46  27 W13G22    29.97R HX  80
WATERTOWN      SUNNY     80  56  43 W14       29.94S HX  80
MONROE         SUNNY     81  52  36 W14G21    29.99S HX  80
JANESVILLE     MOSUNNY   82  48  30 W15G21    29.97R HX  81
$$

WIZ051-052-058>065-066-070>072-300100-
SOUTHEAST WISCONSIN

CITY           SKY/WX    TMP DP  RH WIND       PRES   REMARKS
MILWAUKEE      MOSUNNY   84  50  30 W17G24    29.92S HX  82
6HR MIN TEMP:  84; 6HR MAX TEMP:  87;

WAUKESHA       SUNNY     81  50  34 W14       29.95S HX  80
MILWAUKEE/TIMM NOT AVBL
RACINE         SUNNY     82  51  34 W12G22    29.95S HX  81
6HR MIN TEMP:  82; 6HR MAX TEMP:  86;

BURLINGTON     SUNNY     80  51  37 W9        29.96R
KENOSHA        SUNNY     80  55  42 W12       29.95S HX  80
6HR MIN TEMP:  80; 6HR MAX TEMP:  84;

FOND DU LAC    SUNNY     81  53  37 W13G22    29.91R HX  80
6HR MIN TEMP:  81; 6HR MAX TEMP:  85;

SHEBOYGAN      SUNNY     81  53  37 W14G25    29.89R HX  80
6HR MIN TEMP:  81; 6HR MAX TEMP:  85;

WEST BEND      SUNNY     81  48  32 W10G23    29.92R HX  80
JUNEAU         SUNNY     79  55  43 W13       29.94S
$$

LSZ147-162-300100-
LAKE SUPERIOR

STATION/POSITION TIME  TEMP    WIND        PRES    WAVE
                       AIR SEA DIR/SP/G            HT/PER
                 (UTC) (F)     (DEG/KT/KT) (MB)    (FT/S)
W MID LAKE BUOY  2250   63 55  240/ 14/ 16 1006.7R   5/ 6
DEVILS ISLAND    2300   66     240/ 15/ 17 1007.7R
PORT WING        2300   76     240/  9/ 15 1008.8R
SAXON HARBOR     2300   76                 1008.8S
$$

LMZ867-665-643>646-300100-
LAKE MICHIGAN

STATION/POSITION TIME  TEMP    WIND        PRES    WAVE
                       AIR SEA DIR/SP/G            HT/PER
                 (UTC) (F)     (DEG/KT/KT) (MB)    (FT/S)
CHAMBERS ISLAND  2300   78     200/  2/  8 1009.1R
S GREEN BAY BUOY 2230   72 67  250/ 14/ 17 1011.4R
N MID LAKE BUOY  2250   74 70  220/ 14/ 16 1008.2R   3/ 5
NORTHPORT PIER   2300   80     280/  6/  9 1008.8R
SISTER BAY       2314   79     310/ 17/ 20   N/A
ALGOMA LAKESHORE 2342          330/ 10/ 16   N/A
KEWAUNEE LAKESHO 2300   83     270/ 15/ 27 1010.1
SHEBOYGAN LAKESH 2300   83     250/ 17/ 21 1011.6R
PORT WASHINGTON  2300   86     270/ 14/ 21 1012.9R
ATWATER BUOY     2300   78     240/ 10/ 23 1014.4R
MILWAUKEE LAKESH 2300   83     270/ 14/ 20   N/A
KENOSHA   LAKESH 2300   84     270/ 17/ 24 1013.2S
$$

TC  - TEMPERATURE IN CELSIUS
VSB - VISIBILITY IN STATUTE MILES
WCI - WIND CHILL INDEX
HX  - HEAT INDEX



USA.gov is the U.S. government's official web portal to all federal, state and local government web resources and services.